sat.trackr.live / text

‹ back to catalog

STARLINK-3241

NORAD 49745 · 2021-115X

PAYLOAD ACTIVE UNKNOWN

§ Identity

Operator
Country
US
Launch date
2021-12-02
Launch site
AFETR
Launch vehicle
Mass (kg)
RCS (m²)

Purposes: comms

External: N2YO · Heavens-Above · Gunter

§ Orbital elements

Epoch: 2026-05-24T19:12:55.265760Z

Period
95.44 min
Inclination
53.2150°
Eccentricity
0.0001270
Mean motion
15.08839141 rev/d
Perigee alt
538.9 km
Apogee alt
540.6 km
Semi-major
6,917.9 km
B*
-8.1253e-6
RAAN
167.4142°
Arg perigee
81.2229°
Mean anomaly
278.8907°
Rev number
24,702

§ Raw data

STARLINK-32411 49745U 21115X   26144.80063965 -.00000417  00000+0 -81253-5 0  99902 49745  53.2150 167.4142 0001270  81.2229 278.8907 15.08839141247022

JSON: /api/v1/satellites/49745 · /tle

For live sub-satellite position, see the globe view (requires WebGL).

§ Visibility from observer

Set your observer location to see the next 7 days of passes ≥ 10°. The values pass through the URL so the page stays shareable.

No JS? Fill the form by hand. The geolocation button needs JavaScript.